Simultaneous Nadir Overpasses (SNOs) Predictions

Prediction of SNOs between NOAA-19 and TERRA Satellite Orbit:

Table of predicted SNOs for the next 14.0 days since TLE Epoch: 12/13/2016
Index Date (NOAA-19) Time (NOAA-19) Lat,Lon (NOAA-19) SZA (NOAA-19 ) Date (TERRA) Time (TERRA) Lat,Lon (TERRA) SZA (TERRA ) Distance(km) Time Diff (sec)
1 12/14/2016 13:42:56 74.71, -16.83 98.10 12/14/2016 13:43:59 74.72, -16.72 98.12 3.64 63
2 12/14/2016 14:33:55 -74.63, 150.63 81.97 12/14/2016 14:33:28 -74.64, 150.71 81.97 2.58 27
3 12/16/2016 19:16:52 -74.70, 79.76 81.83 12/16/2016 19:17:44 -74.70, 79.79 81.81 0.94 52
4 12/16/2016 20:07:51 74.63,-112.78 98.12 12/16/2016 20:07:11 74.63,-112.74 98.11 1.28 40
5 12/19/2016 00:50:47 74.68, 176.39 98.21 12/19/2016 00:51:27 74.69, 176.32 98.22 2.25 40
6 12/19/2016 01:41:48 -74.64, -16.25 81.83 12/19/2016 01:40:56 -74.61, -16.24 81.87 3.42 52
7 12/21/2016 06:24:45 -74.71, -87.14 81.75 12/21/2016 06:25:11 -74.71, -87.05 81.74 2.56 26
8 12/21/2016 07:15:43 74.65, 80.30 98.20 12/21/2016 07:14:38 74.64, 80.40 98.18 3.54 65
9 12/23/2016 11:58:39 74.71, 9.46 98.23 12/23/2016 11:58:54 74.68, 9.44 98.20 3.33 15
10 12/23/2016 12:49:37 -74.47, 177.36 81.98 12/23/2016 12:48:24 -74.56, 176.77 81.94 19.88 73
11 12/25/2016 17:32:37 -74.70, 106.05 81.85 12/25/2016 17:32:38 -74.70, 106.05 81.85 0.11 1




NCC Satellite Simultaneous Nadir Overpasses (SNOs) Prediction Service
